EW8359 Weather Reports


time (UTC)temp
C
wind
direction
speed
KPH
gust
KPH
rain 1hr
cm
rain 24hr
cm
rain mn
cm
humidity
%
barometer
mb
20260902194542 18 180 0.0 8.0 0.00 0.00 0.00 73 1020.2
20260902193027 18 12 0.0 6.4 0.00 0.00 0.00 71 1020.4
20260902191526 19 127 1.6 8.0 0.00 0.00 0.00 73 1020.3
20260902190025 19 28 0.0 9.7 0.00 0.00 0.00 73 1020.3
20260902184528 18 39 0.0 4.8 0.00 0.00 0.00 75 1020.3
20260902183021 18 179 1.6 11.3 0.00 0.00 0.00 74 1020.3
20260902181519 18 29 0.0 6.4 0.00 0.00 0.00 75 1020.5
20260902180020 18 90 0.0 4.8 0.00 0.00 0.00 74 1020.5
20260902174518 18 156 0.0 4.8 0.00 0.00 0.00 72 1020.7
20260902173024 18 176 0.0 4.8 0.00 0.00 0.00 71 1020.5
20260902171517 18 173 0.0 4.8 0.00 0.00 0.00 72 1020.5
20260902170019 18 176 0.0 4.8 0.00 0.00 0.00 71 1020.6
20260902164615 18 154 3.2 8.0 0.00 0.00 0.00 73 1020.4
20260902163011 18 161 3.2 8.0 0.00 0.00 0.00 74 1020.7
20260902161511 18 146 1.6 4.8 0.00 0.00 0.00 77 1020.9
20260902160010 18 189 0.0 6.4 0.00 0.00 0.00 80 1021.0
20260902154510 18 295 0.0 3.2 0.00 0.00 0.00 81 1021.1
20260902153010 18 295 1.6 6.4 0.00 0.00 0.00 82 1021.1
20260902151507 18 161 3.2 8.0 0.00 0.00 0.00 82 1021.2
20260902150006 18 128 0.0 4.8 0.00 0.00 0.00 81 1021.2
20260902144504 18 135 0.0 3.2 0.00 0.00 0.00 81 1020.9
20260902143109 17 130 1.6 9.7 0.00 0.00 0.00 85 1020.8
20260902141557 17 150 1.6 4.8 0.00 0.00 0.00 86 1020.9
20260902140055 17 202 0.0 4.8 0.00 0.00 0.00 87 1020.8
20260902134558 17 63 0.0 4.8 0.00 0.00 0.00 87 1020.6
20260902133057 17 125 1.6 6.4 0.00 0.00 0.00 87 1020.7
20260902131601 17 17 0.0 3.2 0.00 0.00 0.00 87 1020.6
20260902130052 16 27 0.0 6.4 0.00 0.00 0.00 87 1020.6
20260902124552 16 63 0.0 3.2 0.00 0.00 0.00 88 1020.8
20260902123051 16 63 0.0 3.2 0.00 0.00 0.00 88 1020.6
20260902121550 16 58 0.0 4.8 0.00 0.00 0.00 89 1020.5
20260902120049 16 42 0.0 4.8 0.00 0.00 0.00 89 1020.7
20260902114550 16 40 3.2 6.4 0.00 0.00 0.00 89 1020.5
20260902113051 16 142 1.6 6.4 0.00 0.00 0.00 89 1020.7
20260902111547 16 41 0.0 6.4 0.00 0.00 0.00 89 1020.5
20260902110044 16 161 0.0 4.8 0.00 0.00 0.00 89 1020.2
20260902104604 16 61 0.0 6.4 0.00 0.00 0.00 90 1019.9
20260902103041 16 49 0.0 3.2 0.00 0.00 0.00 90 1020.0
20260902101540 16 50 0.0 1.6 0.00 0.00 0.00 90 1020.0
20260902100056 16 45 0.0 4.8 0.00 0.00 0.00 90 1019.9
20260902094538 16 46 0.0 3.2 0.00 0.00 0.00 90 1019.7
20260902093036 16 46 0.0 0.0 0.00 0.00 0.00 90 1019.6
20260902091536 16 46 0.0 1.6 0.00 0.00 0.00 90 1019.5
20260902090034 16 46 0.0 0.0 0.00 0.00 0.00 90 1019.6
20260902084533 16 46 0.0 0.0 0.00 0.00 0.00 89 1019.7
20260902083032 16 46 0.0 1.6 0.00 0.00 0.00 89 1019.6
20260902081536 16 46 0.0 0.0 0.00 0.00 0.00 89 1019.6
20260902080033 16 46 0.0 1.6 0.00 0.00 0.00 89 1019.5
20260902074528 16 46 0.0 0.0 0.00 0.00 0.00 89 1019.4
20260902073027 16 46 0.0 0.0 0.00 0.00 0.00 89 1019.4
20260902071534 16 46 0.0 0.0 0.00 0.00 0.00 89 1019.2
20260902070030 16 46 0.0 1.6 0.00 0.00 0.00 89 1019.2
20260902064526 16 46 0.0 1.6 0.00 0.00 0.00 89 1019.2
20260902063028 16 46 0.0 1.6 0.00 0.00 0.00 89 1019.1
20260902061523 16 46 0.0 0.0 0.00 0.00 0.00 89 1019.1
20260902060027 16 46 0.0 0.0 0.00 0.00 0.00 89 1019.4
20260902054523 16 46 0.0 1.6 0.00 0.00 0.00 89 1019.2
20260902053019 16 46 0.0 1.6 0.00 0.00 0.00 89 1019.0
20260902051516 16 46 0.0 3.2 0.00 0.00 0.00 88 1018.8
20260902050016 16 46 0.0 3.2 0.00 0.00 0.00 88 1018.5
20260902044531 16 48 0.0 1.6 0.00 0.00 0.00 88 1018.3
20260902043008 16 48 1.6 6.4 0.00 0.00 0.00 87 1018.2
20260902041506 17 30 1.6 4.8 0.00 0.00 0.00 87 1018.2
20260902040004 17 60 0.0 6.4 0.00 0.00 0.00 87 1017.9
20260902034502 17 24 0.0 3.2 0.00 0.00 0.00 87 1018.0
20260902033114 17 24 0.0 3.2 0.00 0.00 0.00 87 1017.9
20260902031601 17 24 0.0 1.6 0.00 0.00 0.00 87 1017.7
20260902030059 17 24 1.6 3.2 0.00 0.00 0.00 87 1017.6
20260902024608 17 24 0.0 1.6 0.00 0.00 0.00 87 1017.3
20260902023100 17 24 0.0 1.6 0.00 0.00 0.00 87 1017.6
20260902021558 17 24 0.0 1.6 0.00 0.00 0.00 86 1017.6
20260902020123 17 24 0.0 1.6 0.00 0.00 0.00 86 1017.6
20260902014602 17 24 0.0 1.6 0.00 0.00 0.00 86 1017.6
20260902013058 17 24 0.0 3.2 0.00 0.00 0.00 86 1017.8
20260902011557 17 24 0.0 3.2 0.00 0.00 0.00 86 1017.7
20260902010055 17 24 0.0 1.6 0.00 0.00 0.00 86 1017.6
20260902004552 17 24 0.0 0.0 0.00 0.00 0.00 86 1017.4
20260902003049 17 24 0.0 4.8 0.00 0.00 0.00 86 1017.3
20260902001548 18 10 1.6 4.8 0.00 0.00 0.00 86 1017.0
20260902000048 18 32 0.0 3.2 0.00 0.00 0.00 85 1016.9
20260901234602 18 32 0.0 3.2 0.00 0.00 0.00 85 1016.9
20260901233052 18 32 0.0 1.6 0.00 0.00 0.00 85 1016.9
20260901231545 18 32 0.0 1.6 0.00 0.00 0.00 84 1016.9
20260901230050 18 32 0.0 1.6 0.00 0.00 0.00 82 1016.8
20260901224548 19 32 0.0 4.8 0.00 0.00 0.00 80 1016.6
20260901223051 20 33 1.6 8.0 0.00 0.00 0.00 78 1016.4
20260901221607 21 218 0.0 4.8 0.00 0.00 0.00 76 1016.3
20260901220043 21 67 0.0 4.8 0.00 0.00 0.00 72 1016.4
20260901214541 21 184 0.0 6.4 0.00 0.00 0.00 67 1016.4
20260901213043 21 161 1.6 11.3 0.00 0.00 0.00 66 1016.2
20260901211541 21 163 0.0 9.7 0.00 0.00 0.00 66 1016.1
20260901210040 21 286 1.6 11.3 0.00 0.00 0.00 62 1016.0
20260901204542 22 346 1.6 6.4 0.00 0.00 0.00 64 1015.8
20260901203053 22 15 0.0 4.8 0.00 0.00 0.00 71 1015.8
20260901201546 22 196 1.6 8.0 0.00 0.00 0.00 68 1015.7
20260901200038 22 211 3.2 8.0 0.00 0.00 0.00 66 1015.7